Location: Vigevano
(45.3170°N, 8.8500°E)
Time: 08:37:26
(UTC+01:00)

ISS - Visible Passes

Search period start: 30 November 2022 00:00
Search period end: 10 December 2022 00:00
Orbit: 411 x 420 km, 51.6° (Epoch: 30 November)

Date Brightness Start Highest point End Pass type
(mag) Time Alt. Az. Time Alt. Az. Time Alt. Az.
30 Nov -2.7 18:39:28 10° NW 18:41:59 35° NNW 18:41:59 35° NNW visible
01 Dec -2.8 17:50:43 10° NW 17:53:47 32° NNE 17:55:20 21° ENE visible
01 Dec -0.9 19:27:24 10° WNW 19:28:14 17° WNW 19:28:14 17° WNW visible
02 Dec -3.7 18:38:37 10° WNW 18:41:40 68° NNW 18:41:40 68° NNW visible
03 Dec -3.5 17:49:51 10° NW 17:53:07 51° NNE 17:55:13 20° E visible
03 Dec -1.0 19:26:47 10° WNW 19:28:07 19° W 19:28:07 19° W visible
04 Dec -2.9 18:37:46 10° WNW 18:41:00 47° SW 18:41:51 37° S visible
05 Dec -3.7 17:48:52 10° WNW 17:52:12 78° SSW 17:55:31 10° SE visible
05 Dec -0.6 19:27:06 10° WSW 19:28:24 12° SW 19:28:44 12° SW visible
06 Dec -1.1 18:37:16 10° W 18:39:45 20° SW 18:42:13 10° S visible
07 Dec -1.9 17:48:00 10° WNW 17:50:59 32° SW 17:53:59 10° SSE visible
09 Dec -0.4 17:47:49 10° WSW 17:49:30 13° SW 17:51:10 10° SSW visible
